FW2523 Weather Reports


time (UTC)temp
C
wind
direction
speed
KPH
gust
KPH
rain 1hr
cm
rain 24hr
cm
rain mn
cm
humidity
%
barometer
mb
20260505031535 16 360 0.0 1.6 0.00 0.00 0.00 39 1016.0
20260505030044 16 360 0.0 3.2 0.00 0.00 0.00 40 1016.3
20260505024531 16 360 0.0 3.2 0.00 0.00 0.00 40 1016.2
20260505023127 17 360 0.0 0.0 0.00 0.00 0.00 38 1016.0
20260505021555 17 360 0.0 1.6 0.00 0.00 0.00 36 1015.9
20260505020105 17 360 0.0 1.6 0.00 0.00 0.00 35 1016.0
20260505014549 18 360 0.0 1.6 0.00 0.00 0.00 34 1015.8
20260505013047 18 360 0.0 1.6 0.00 0.00 0.00 33 1015.8
20260505011547 18 360 0.0 1.6 0.00 0.00 0.00 31 1015.7
20260505011513 18 360 0.0 1.6 0.00 0.00 0.00 31 1015.6
20260505010054 19 360 0.0 1.6 0.00 0.00 0.00 29 1015.4
20260505004556 20 360 0.0 1.6 0.00 0.00 0.00 28 1015.4
20260505003031 21 360 0.0 0.0 0.00 0.00 0.00 26 1015.2
20260505001528 21 360 0.0 1.6 0.00 0.00 0.00 24 1015.0
20260505000025 22 360 0.0 3.2 0.00 0.00 0.00 23 1014.9
20260504234521 22 360 0.0 4.8 0.00 0.00 0.00 22 1014.7
20260504233022 23 360 1.6 4.8 0.00 0.00 0.00 22 1014.5
20260504231515 23 360 1.6 8.0 0.00 0.00 0.00 21 1014.5
20260504230015 23 360 1.6 12.9 0.00 0.00 0.00 20 1014.4
20260504224510 23 360 3.2 9.7 0.00 0.00 0.00 20 1014.5
20260504223010 24 360 1.6 8.0 0.00 0.00 0.00 18 1014.5
20260504221509 24 186 1.6 8.0 0.00 0.00 0.00 18 1014.5
20260504220008 25 142 1.6 11.3 0.00 0.00 0.00 18 1014.5
20260504214501 25 131 1.6 11.3 0.00 0.00 0.00 17 1014.5
20260504213102 25 143 3.2 8.0 0.00 0.00 0.00 18 1014.5
20260504211556 25 148 3.2 11.3 0.00 0.00 0.00 19 1014.5
20260504210056 25 119 4.8 12.9 0.00 0.00 0.00 18 1014.6
20260504204552 25 334 3.2 12.9 0.00 0.00 0.00 17 1014.8
20260504203051 25 121 3.2 11.3 0.00 0.00 0.00 17 1014.9
20260504201551 25 150 3.2 12.9 0.00 0.00 0.00 19 1015.2
20260504200049 25 309 1.6 12.9 0.00 0.00 0.00 17 1015.5
20260504194522 25 17 1.6 14.5 0.00 0.00 0.00 19 1015.5
20260504193018 25 123 4.8 12.9 0.00 0.00 0.00 19 1015.7
20260504191511 25 128 1.6 9.7 0.00 0.00 0.00 20 1015.8
20260504190017 25 135 6.4 16.1 0.00 0.00 0.00 20 1016.0
20260504184526 25 149 4.8 12.9 0.00 0.00 0.00 20 1016.2
20260504183006 25 135 3.2 11.3 0.00 0.00 0.00 21 1016.3
20260504181502 24 98 3.2 8.0 0.00 0.00 0.00 18 1016.5
20260504180101 25 107 1.6 6.4 0.00 0.00 0.00 17 1016.7
20260504174556 23 157 1.6 11.3 0.00 0.00 0.00 18 1016.8
20260504173053 24 293 1.6 6.4 0.00 0.00 0.00 20 1016.9
20260504171522 23 242 1.6 12.9 0.00 0.00 0.00 20 1017.2
20260504081529 7 360 0.0 0.0 0.00 0.00 0.00 62 1017.7
20260504050108 11 360 0.0 3.2 0.00 0.00 0.00 51 1017.8
20260504044557 11 360 0.0 0.0 0.00 0.00 0.00 51 1017.9
20260504043101 11 360 0.0 1.6 0.00 0.00 0.00 52 1017.8
20260504041553 11 360 0.0 1.6 0.00 0.00 0.00 52 1017.9
20260504040052 11 360 0.0 0.0 0.00 0.00 0.00 52 1018.3
20260504034556 11 360 0.0 0.0 0.00 0.00 0.00 51 1018.5
20260504033056 11 106 0.0 1.6 0.00 0.00 0.00 51 1018.3